Location: Cluny
(50.9333°N, 112.8167°W)
Time: 02:44:54
(UTC-06:00)

Amateur Radio Satellites - All Passes

Search period start: 28 August 2016 02:14
Search period end: 29 August 2016 02:14
Location: Cluny, 50.9333°N, 112.8167°W

Satellite Date Start Highest point End Downlink Frequencies (MHz)
Time Altitude Azimuth
Gurwin Techsat 1B 28 Aug 02:18:19 02:21:21 15° 86° (E) 02:24:23 435.225
ITUPSAT 1 28 Aug 02:30:21 02:34:58 52° 69° (ENE) 02:39:36 437.325
GONETS M04 28 Aug 02:37:41 02:42:20 16° 291° (WNW) 02:47:00
JAS-2 28 Aug 02:41:32 02:47:58 59° 292° (WNW) 02:55:11 435.910
BUGSAT 1 28 Aug 02:42:29 02:46:22 38° 293° (WNW) 02:50:11 437.445
Oscar 19 28 Aug 02:43:35 02:48:37 46° 99° (E) 02:53:36 437.125/150
QB50P1 28 Aug 02:47:29 02:50:19 18° 301° (WNW) 02:53:08 145.935-145.965
POPSAT HIP 1 28 Aug 02:57:52 03:00:16 15° 303° (WNW) 03:02:40 437.405
SO-50 28 Aug 02:58:44 03:02:53 28° 331° (NNW) 03:06:59 436.795
SWISSCUBE 28 Aug 03:03:07 03:07:52 76° 256° (WSW) 03:12:39 437.505
BEESAT 28 Aug 03:20:19 03:25:00 59° 258° (WSW) 03:29:44 436.000
KKS-1 28 Aug 03:23:10 03:26:48 25° 61° (ENE) 03:30:27 437.445
TISAT 1 28 Aug 03:25:06 03:26:59 13° 273° (W) 03:28:51 437.305
MOZHAYETS 4 28 Aug 03:30:59 03:35:04 33° 65° (ENE) 03:39:10
RS-15 28 Aug 03:54:55 04:06:43 76° 316° (NW) 04:19:06 29.354- 29.394
Gurwin Techsat 1B 28 Aug 03:56:43 04:02:06 88° 107° (ESE) 04:07:25 435.225
STARS 28 Aug 03:57:53 04:01:38 27° 63° (ENE) 04:05:23 437.465
ITAMSAT 1 28 Aug 03:58:40 04:03:21 33° 96° (E) 04:08:00 435.822/435.867
ITUPSAT 1 28 Aug 04:09:15 04:13:05 24° 267° (W) 04:16:57 437.325
Cosmos 2491 28 Aug 04:17:38 04:24:47 26° 56° (NE) 04:31:54 435.465 / 435.565
Oscar 19 28 Aug 04:23:13 04:27:48 32° 298° (WNW) 04:32:22 437.125/150
JAS-2 28 Aug 04:28:13 04:31:58 16° 312° (NW) 04:35:56 435.910
SO-50 28 Aug 04:41:54 04:44:50 16° 355° (N) 04:47:45 436.795
SWISSCUBE 28 Aug 04:45:09 04:46:30 11° 275° (W) 04:47:51 437.505
AO-7 28 Aug 04:47:44 04:55:36 43° 98° (E) 05:03:22 29.400- 29.500
CUBESAT XI-V 28 Aug 04:52:07 04:56:10 31° 64° (ENE) 05:00:15 437.345
KKS-1 28 Aug 04:58:47 05:03:08 48° 260° (W) 05:07:31 437.445
PHONESAT 2.4 28 Aug 05:03:04 05:04:15 12° 182° (S) 05:05:26 2401.200-2431.200
MOZHAYETS 4 28 Aug 05:08:04 05:12:14 34° 264° (W) 05:16:24
AO-85 28 Aug 05:17:31 05:20:37 16° 111° (ESE) 05:23:37 145.980
STARS 28 Aug 05:33:37 05:37:50 42° 262° (W) 05:42:05 437.465
Gurwin Techsat 1B 28 Aug 05:37:46 05:41:23 19° 306° (NW) 05:45:01 435.225
ITAMSAT 1 28 Aug 05:38:03 05:42:57 43° 295° (WNW) 05:47:48 435.822/435.867
YUBILEINY 28 Aug 05:40:15 05:46:41 23° 75° (ENE) 05:53:05 435.215
HORYU 2 28 Aug 06:07:06 06:11:04 31° 96° (E) 06:14:59 437.375
RS-15 28 Aug 06:10:01 06:21:25 45° 348° (NNW) 06:33:09 29.354- 29.394
Cosmos 2491 28 Aug 06:14:07 06:23:01 88° 81° (E) 06:31:53 435.465 / 435.565
GOMX 1 28 Aug 06:15:03 06:16:42 11° 81° (E) 06:18:19 467.674
SO-50 28 Aug 06:23:29 06:27:01 20° 20° (NNE) 06:30:29 436.795
STRAND 1 28 Aug 06:23:58 06:27:46 22° 57° (ENE) 06:31:35 437.568
CUBESAT XI-V 28 Aug 06:29:11 06:33:28 38° 263° (W) 06:37:50 437.345
Cubesat XI-IV 28 Aug 06:31:38 06:34:19 14° 85° (E) 06:37:01 437.490
BRITE-PL 28 Aug 06:38:54 06:44:09 36° 94° (E) 06:49:19 437.365/2234.400
AO-7 28 Aug 06:40:34 06:48:39 57° 300° (WNW) 06:56:40 29.400- 29.500
NOAA 15 28 Aug 06:42:04 06:46:05 21° 90° (E) 06:50:05 137.62
CUTE-I 28 Aug 06:42:45 06:46:14 17° 88° (E) 06:49:43 437.470
AO-85 28 Aug 06:55:14 07:00:29 80° 129° (SE) 07:05:23 145.980
NOAA 18 28 Aug 07:26:21 07:31:20 34° 96° (E) 07:36:14 137.9125
Cosmos 2504 28 Aug 07:28:08 07:35:27 36° 85° (E) 07:42:21 435.465 / 435.565
YUBILEINY 28 Aug 07:33:23 07:42:15 87° 98° (E) 07:51:08 435.215
PRISM 28 Aug 07:35:12 07:36:12 11° 53° (NE) 07:37:13 437.425
HORYU 2 28 Aug 07:43:37 07:47:40 35° 294° (WNW) 07:51:39 437.375
LilacSat-2 28 Aug 07:47:24 07:51:10 60° 101° (E) 07:54:53 437.200
GOMX 1 28 Aug 07:50:24 07:55:52 66° 101° (E) 08:01:06 467.674
DOVE 4 28 Aug 07:54:36 07:59:20 36° 94° (E) 08:03:49 437.250
STRAND 1 28 Aug 08:01:23 08:06:28 72° 256° (WSW) 08:11:36 437.568
SO-50 28 Aug 08:03:48 08:08:26 58° 43° (NE) 08:12:55 436.795
Cubesat XI-IV 28 Aug 08:09:54 08:15:16 82° 106° (ESE) 08:20:36 437.490
HO-68 28 Aug 08:11:57 08:16:59 20° 87° (E) 08:21:57 435.675
Cosmos 2491 28 Aug 08:12:04 08:18:44 25° 283° (WNW) 08:25:25 435.465 / 435.565
BRITE-PL 28 Aug 08:17:18 08:22:42 46° 293° (WNW) 08:28:03 437.365/2234.400
NOAA 15 28 Aug 08:21:04 08:26:22 68° 290° (WNW) 08:31:38 137.62
CUTE-I 28 Aug 08:21:37 08:26:58 82° 288° (WNW) 08:32:17 437.470
RS-15 28 Aug 08:25:25 08:37:14 49° 21° (NNE) 08:49:08 29.354- 29.394
CINEMA 3 28 Aug 08:31:40 08:35:20 23° 91° (E) 08:38:52 145.822/145.860
AO-7 28 Aug 08:34:18 08:39:48 20° 324° (NW) 08:45:17 29.400- 29.500
AO-85 28 Aug 08:37:00 08:41:26 29° 329° (NNW) 08:45:35 145.980
SEEDS 28 Aug 08:43:55 08:46:40 17° 89° (E) 08:49:25 437.485
CANX-2 28 Aug 09:05:50 09:09:52 40° 98° (E) 09:13:53 2200.000
PRISM 28 Aug 09:06:40 09:10:45 70° 72° (ENE) 09:14:53 437.425
NOAA 18 28 Aug 09:06:55 09:12:08 45° 295° (WNW) 09:17:19 137.9125
ANTELSAT 28 Aug 09:10:26 09:12:35 13° 55° (NE) 09:14:44 437.575/2403.000
CUTE 1.7 + AOD 2 28 Aug 09:11:49 09:15:51 41° 98° (E) 09:19:52 437.475
AAUSAT CUBESAT 2 28 Aug 09:13:07 09:16:05 19° 91° (E) 09:19:02 437.432
Cosmos 2504 28 Aug 09:20:19 09:28:31 60° 286° (WNW) 09:36:12 435.465 / 435.565
COMPASS 1 28 Aug 09:21:22 09:24:58 27° 94° (E) 09:28:33 437.405
LilacSat-2 28 Aug 09:22:46 09:25:04 16° 300° (WNW) 09:27:20 437.200
GOMX 1 28 Aug 09:29:06 09:33:29 25° 301° (WNW) 09:37:44 467.674
DOVE 4 28 Aug 09:32:18 09:37:02 38° 295° (WNW) 09:41:32 437.250
YUBILEINY 28 Aug 09:32:59 09:40:17 28° 303° (WNW) 09:47:38 435.215
AIST 1 28 Aug 09:34:03 09:37:53 31° 90° (E) 09:41:45
ISS 28 Aug 09:36:34 09:39:00 19° 143° (SE) 09:41:25 145.825
TIGRISAT 28 Aug 09:39:36 09:43:03 22° 61° (ENE) 09:46:28 435.000
SO-50 28 Aug 09:44:46 09:48:38 26° 243° (WSW) 09:52:23 436.795
STRAND 1 28 Aug 09:45:02 09:46:35 11° 276° (W) 09:48:10 437.568
CUSAT 1 28 Aug 09:48:23 09:53:48 33° 67° (ENE) 10:00:14 437.405
Cubesat XI-IV 28 Aug 09:50:57 09:54:46 20° 305° (NW) 09:58:34 437.490
BRITE-PL 28 Aug 09:58:29 09:59:52 11° 313° (NW) 10:01:15 437.365/2234.400
HO-68 28 Aug 09:58:31 10:05:46 85° 107° (ESE) 10:12:56 435.675
Oscar 11 28 Aug 10:00:52 10:04:24 24° 93° (E) 10:07:55 145.826/435.025
NOAA 15 28 Aug 10:02:25 10:05:14 15° 310° (NW) 10:08:03 137.62
CUTE-I 28 Aug 10:02:57 10:06:16 17° 308° (NW) 10:09:34 437.470
BEESAT 2 28 Aug 10:05:28 10:07:05 12° 111° (ESE) 10:08:41 435.950
UNISAT 6 28 Aug 10:07:31 10:11:44 38° 67° (ENE) 10:15:53 437.425
CINEMA 3 28 Aug 10:08:20 10:12:46 47° 292° (WNW) 10:16:59 145.822/145.860
FUNcube-1 28 Aug 10:09:14 10:12:46 26° 94° (E) 10:16:15 145.935
UWE-3 28 Aug 10:17:47 10:21:54 50° 99° (E) 10:25:56 435.000/436.395/437.385
SEEDS 28 Aug 10:18:36 10:22:46 60° 288° (WNW) 10:26:55 437.485
BEESAT 3 28 Aug 10:20:05 10:23:28 29° 119° (ESE) 10:26:54 437.485
AO-85 28 Aug 10:20:28 10:23:20 15° 352° (N) 10:26:06 145.980
CUBEBUG 2 28 Aug 10:21:33 10:25:51 79° 102° (ESE) 10:30:02 437.445
ZACube-1 28 Aug 10:30:50 10:34:51 44° 98° (E) 10:38:49 437.345
QB50P1 28 Aug 10:34:30 10:36:45 14° 56° (NE) 10:38:59 145.935-145.965
RS-15 28 Aug 10:38:52 10:51:19 89° 231° (SW) 11:03:37 29.354- 29.394
CANX-2 28 Aug 10:42:04 10:45:34 26° 296° (WNW) 10:49:04 2200.000
POPSAT HIP 1 28 Aug 10:44:02 10:46:44 17° 58° (ENE) 10:49:27 437.405
ANTELSAT 28 Aug 10:44:02 10:48:37 80° 75° (ENE) 10:53:08 437.575/2403.000
PRISM 28 Aug 10:44:20 10:46:33 14° 271° (W) 10:48:47 437.425
DELFI C3 28 Aug 10:45:48 10:49:19 29° 95° (E) 10:52:50 145.870
AAUSAT CUBESAT 2 28 Aug 10:47:49 10:51:53 53° 289° (WNW) 10:55:56 437.432
CUTE 1.7 + AOD 2 28 Aug 10:48:02 10:51:32 25° 296° (WNW) 10:55:01 437.475
NOAA 18 28 Aug 10:50:27 10:51:31 11° 317° (NW) 10:52:37 137.9125
DANDE 28 Aug 10:51:37 10:56:15 36° 71° (ENE) 11:02:10 436.750
COMPASS 1 28 Aug 10:56:46 11:00:36 36° 293° (WNW) 11:04:26 437.405
DUCHIFAT 1 28 Aug 11:09:56 11:13:23 25° 63° (ENE) 11:16:51 145.980
HUMSAT D 28 Aug 11:11:09 11:14:40 27° 94° (E) 11:18:10 437.325/437.525
AIST 1 28 Aug 11:11:30 11:15:26 32° 289° (WNW) 11:19:26
ISS 28 Aug 11:11:46 11:15:04 69° 161° (SSE) 11:18:21 145.825
QB50P2 28 Aug 11:13:19 11:17:04 30° 65° (ENE) 11:20:50 145.880/145.840
TIGRISAT 28 Aug 11:14:55 11:19:25 57° 259° (W) 11:23:52 435.000
POLYITAN 1 28 Aug 11:15:49 11:19:35 31° 65° (ENE) 11:23:21 437.675
JAS-2 28 Aug 11:16:15 11:20:22 23° 54° (NE) 11:24:47 435.910
Cosmos 2504 28 Aug 11:19:02 11:23:44 16° 310° (NW) 11:28:17 435.465 / 435.565
NANOSAT C BR1 28 Aug 11:23:38 11:27:29 34° 66° (ENE) 11:31:21 145.865
CUSAT 1 28 Aug 11:30:01 11:36:04 62° 262° (W) 11:43:28 437.405
Oscar 11 28 Aug 11:36:38 11:40:43 43° 291° (WNW) 11:44:48 145.826/435.025
BEESAT 2 28 Aug 11:40:17 11:44:15 86° 130° (SE) 11:48:16 435.950
UNISAT 6 28 Aug 11:44:30 11:48:31 30° 265° (W) 11:52:30 437.425
FUNcube-1 28 Aug 11:45:17 11:49:08 37° 293° (WNW) 11:52:56 145.935
HO-68 28 Aug 11:46:59 11:52:46 27° 309° (NW) 11:58:32 435.675
GONETS M04 28 Aug 11:50:13 11:57:47 34° 82° (E) 12:05:25
UWE-3 28 Aug 11:54:54 11:58:06 21° 299° (WNW) 12:01:14 435.000/436.395/437.385
BEESAT 3 28 Aug 11:57:15 12:01:01 43° 319° (NW) 12:04:49 437.485
CUBEBUG 2 28 Aug 11:59:28 12:01:54 15° 303° (WNW) 12:04:19 437.445
BUGSAT 1 28 Aug 12:01:28 12:05:20 35° 66° (ENE) 12:09:14 437.445
AO-85 28 Aug 12:02:18 12:05:31 18° 17° (NNE) 12:08:35 145.980
ESTCUBE 1 28 Aug 12:03:49 12:07:08 20° 91° (E) 12:10:27 437.505/2401.250
QB50P1 28 Aug 12:07:37 12:11:55 89° 257° (WSW) 12:16:13 145.935-145.965
ZACube-1 28 Aug 12:07:38 12:10:56 23° 298° (WNW) 12:14:11 437.345
AISAT 28 Aug 12:09:53 12:11:59 13° 87° (E) 12:14:04 437.250
AO-7 28 Aug 12:15:56 12:18:26 12° 19° (NNE) 12:20:56 29.400- 29.500
POPSAT HIP 1 28 Aug 12:17:45 12:22:02 73° 257° (WSW) 12:26:20 437.405
DELFI C3 28 Aug 12:20:37 12:24:11 31° 293° (WNW) 12:27:45 145.870
AIST 2 28 Aug 12:22:31 12:24:50 15° 112° (ESE) 12:27:09 435.215
Cosmos 2499 28 Aug 12:23:15 12:30:29 39° 87° (E) 12:37:16 435.465 / 435.565
ANTELSAT 28 Aug 12:23:22 12:25:53 15° 272° (W) 12:28:23 437.575/2403.000
Oscar 19 28 Aug 12:28:05 12:31:49 21° 56° (NE) 12:35:35 437.125/150
DANDE 28 Aug 12:34:11 12:39:04 44° 264° (W) 12:45:21 436.750
DUCHIFAT 1 28 Aug 12:44:49 12:48:53 43° 261° (W) 12:52:58 145.980
PCSat 28 Aug 12:46:30 12:51:44 52° 119° (ESE) 12:57:01 145.827
AUBIESAT-1 28 Aug 12:46:32 12:50:28 41° 103° (ESE) 12:54:07 437.475
HUMSAT D 28 Aug 12:46:38 12:50:22 34° 293° (WNW) 12:54:04 437.325/437.525
ISS 28 Aug 12:48:15 12:51:34 76° 1° (N) 12:54:52 145.825
QB50P2 28 Aug 12:48:55 12:52:50 34° 264° (W) 12:56:45 145.880/145.840
POLYITAN 1 28 Aug 12:51:27 12:55:21 34° 264° (W) 12:59:16 437.675
RS-15 28 Aug 12:52:09 13:02:26 33° 256° (WSW) 13:12:37 29.354- 29.394
M-CUBED/EXP-1 PRIME 28 Aug 12:52:49 12:57:01 58° 107° (ESE) 13:00:52 437.505
CUBEBUG 1 28 Aug 12:55:38 12:59:49 39° 98° (E) 13:03:57 437.445
VELOX 1 28 Aug 12:55:44 12:59:47 32° 96° (E) 13:03:47 145.980
50 SAT 28 Aug 12:56:58 13:00:15 30° 97° (E) 13:03:31 437.505
NANOSAT C BR1 28 Aug 12:59:28 13:03:14 30° 265° (W) 13:07:02 145.865
JAS-2 28 Aug 12:59:41 13:04:55 70° 258° (WSW) 13:10:39 435.910
SPROUT 28 Aug 13:09:45 13:13:18 25° 93° (E) 13:16:49 437.525
DX 1 28 Aug 13:10:20 13:14:16 31° 96° (E) 13:18:09 434.975-435.025
CUSAT 1 28 Aug 13:14:18 13:17:18 14° 279° (W) 13:20:30 437.405
BEESAT 2 28 Aug 13:19:27 13:22:35 22° 331° (NNW) 13:25:45 435.950
BUGSAT 1 28 Aug 13:37:03 13:40:46 29° 265° (W) 13:44:30 437.445
BEESAT 3 28 Aug 13:37:22 13:39:39 15° 341° (NNW) 13:41:57 437.485
ESTCUBE 1 28 Aug 13:39:51 13:44:19 58° 289° (WNW) 13:48:47 437.505/2401.250
AO-85 28 Aug 13:42:38 13:47:01 50° 41° (NE) 13:51:03 145.980
Gurwin Techsat 1B 28 Aug 13:43:39 13:48:33 39° 64° (ENE) 13:53:29 435.225
AISAT 28 Aug 13:44:35 13:49:06 86° 290° (WNW) 13:53:34 437.250
ITAMSAT 1 28 Aug 13:44:47 13:47:57 17° 53° (NE) 13:51:08 435.822/435.867
GONETS M04 28 Aug 13:45:19 13:54:02 67° 285° (WNW) 14:02:53
O/OREOS (USA 219) 28 Aug 13:46:24 13:49:08 16° 100° (E) 13:51:53 437.305
QB50P1 28 Aug 13:46:56 13:48:21 11° 274° (W) 13:49:46 145.935-145.965
UKube-1 28 Aug 13:48:59 13:53:17 57° 101° (E) 13:57:33 .
AIST 2 28 Aug 13:58:37 14:02:44 84° 311° (NW) 14:06:55 435.215
AO-7 28 Aug 14:01:47 14:08:30 28° 45° (NE) 14:15:12 29.400- 29.500
Oscar 19 28 Aug 14:05:25 14:10:35 78° 256° (WSW) 14:15:50 437.125/150
Cosmos 2499 28 Aug 14:15:40 14:23:27 53° 288° (WNW) 14:30:43 435.465 / 435.565
AUBIESAT-1 28 Aug 14:21:16 14:24:45 26° 304° (NW) 14:28:01 437.475
ISS 28 Aug 14:24:46 14:28:02 59° 201° (SSW) 14:31:17 145.825
M-CUBED/EXP-1 PRIME 28 Aug 14:27:58 14:31:08 21° 308° (NW) 14:34:09 437.505
PCSat 28 Aug 14:30:17 14:35:21 38° 320° (NW) 14:40:26 145.827
50 SAT 28 Aug 14:30:43 14:33:45 25° 295° (WNW) 14:36:47 437.505
CUBEBUG 1 28 Aug 14:32:09 14:35:59 29° 296° (WNW) 14:39:48 437.445
VELOX 1 28 Aug 14:32:12 14:36:16 35° 295° (WNW) 14:40:18 145.980
SPROUT 28 Aug 14:45:21 14:49:25 41° 292° (WNW) 14:53:25 437.525
DX 1 28 Aug 14:46:28 14:50:29 35° 295° (WNW) 14:54:28 434.975-435.025
JAS-2 28 Aug 14:50:03 14:51:23 11° 280° (W) 14:52:45 435.910
SWISSCUBE 28 Aug 14:58:54 15:02:19 19° 90° (E) 15:05:44 437.505
BEESAT 2 28 Aug 15:00:24 15:01:50 12° 355° (N) 15:03:15 435.950
TISAT 1 28 Aug 15:00:53 15:05:08 74° 104° (ESE) 15:09:19 437.305
BEESAT 28 Aug 15:15:37 15:19:30 24° 93° (E) 15:23:23 436.000
BEESAT 3 28 Aug 15:17:37 15:18:57 11° 6° (N) 15:20:15 437.485
ESTCUBE 1 28 Aug 15:19:29 15:20:13 10° 309° (NW) 15:20:57 437.505/2401.250
ITAMSAT 1 28 Aug 15:21:30 15:26:41 82° 72° (ENE) 15:31:54 435.822/435.867
AISAT 28 Aug 15:22:32 15:24:54 14° 305° (NW) 15:27:16 437.250
O/OREOS (USA 219) 28 Aug 15:23:27 15:27:58 74° 300° (WNW) 15:32:31 437.305
AO-85 28 Aug 15:23:34 15:27:11 26° 244° (WSW) 15:30:36 145.980
Gurwin Techsat 1B 28 Aug 15:23:37 15:28:32 38° 264° (W) 15:33:30 435.225
UKube-1 28 Aug 15:25:45 15:28:59 21° 301° (WNW) 15:32:13 .
AIST 2 28 Aug 15:38:36 15:41:49 21° 333° (NNW) 15:45:04 435.215
YUBILEINY 28 Aug 15:41:32 15:46:56 17° 45° (NE) 15:52:17 435.215
GONETS M04 28 Aug 15:46:52 15:52:55 20° 311° (NW) 15:59:01
Oscar 19 28 Aug 15:48:30 15:50:48 13° 275° (W) 15:53:06 437.125/150
AO-7 28 Aug 15:51:55 16:00:18 85° 68° (ENE) 16:08:42 29.400- 29.500
ISS 28 Aug 16:01:57 16:04:01 16° 220° (SW) 16:06:04 145.825
ITUPSAT 1 28 Aug 16:03:12 16:07:57 61° 102° (ESE) 16:12:40 437.325
Cosmos 2499 28 Aug 16:14:57 16:18:33 14° 312° (NW) 16:22:04 435.465 / 435.565
PCSat 28 Aug 16:16:49 16:20:18 17° 345° (NNW) 16:23:46 145.827
BRITE-PL 28 Aug 16:19:41 16:21:54 13° 49° (NE) 16:24:11 437.365/2234.400
NOAA 15 28 Aug 16:31:21 16:33:10 12° 47° (NE) 16:35:00 137.62
CUTE-I 28 Aug 16:34:45 16:35:15 10° 45° (NE) 16:35:44 437.470
SWISSCUBE 28 Aug 16:35:50 16:40:34 64° 289° (WNW) 16:45:17 437.505
TISAT 1 28 Aug 16:37:41 16:40:16 16° 303° (WNW) 16:42:51 437.305
BEESAT 2 28 Aug 16:38:54 16:41:17 15° 19° (NNE) 16:43:38 435.950
KKS-1 28 Aug 16:44:58 16:48:31 23° 93° (E) 16:52:02 437.445
BEESAT 28 Aug 16:52:57 16:57:34 50° 292° (WNW) 17:02:09 436.000
BEESAT 3 28 Aug 16:54:54 16:58:01 21° 29° (NNE) 17:01:08 437.485
MOZHAYETS 4 28 Aug 16:57:23 17:01:41 38° 97° (E) 17:05:58
ITAMSAT 1 28 Aug 17:03:30 17:06:49 17° 272° (W) 17:10:09 435.822/435.867
O/OREOS (USA 219) 28 Aug 17:05:27 17:08:13 16° 321° (NW) 17:11:00 437.305
HORYU 2 28 Aug 17:09:35 17:13:56 54° 69° (ENE) 17:18:17 437.375
Cosmos 2504 28 Aug 17:14:22 17:19:00 17° 51° (NE) 17:23:31 435.465 / 435.565
STARS 28 Aug 17:18:04 17:21:41 24° 93° (E) 17:25:15 437.465
NOAA 18 28 Aug 17:19:07 17:23:09 21° 54° (NE) 17:27:11 137.9125
AIST 2 28 Aug 17:20:03 17:21:48 12° 357° (N) 17:23:32 435.215
GOMX 1 28 Aug 17:26:33 17:30:30 22° 57° (ENE) 17:34:33 467.674
Cosmos 2491 28 Aug 17:27:57 17:34:09 22° 75° (ENE) 17:40:22 435.465 / 435.565
DOVE 4 28 Aug 17:30:03 17:32:25 13° 51° (NE) 17:34:48 437.250
YUBILEINY 28 Aug 17:37:25 17:46:07 58° 72° (ENE) 17:54:41 435.215
ITUPSAT 1 28 Aug 17:41:45 17:45:25 22° 301° (WNW) 17:49:05 437.325
AO-7 28 Aug 17:47:18 17:54:03 27° 269° (W) 18:00:50 29.400- 29.500
BRITE-PL 28 Aug 17:54:18 17:59:14 59° 70° (ENE) 18:04:34 437.365/2234.400
Cubesat XI-IV 28 Aug 17:57:42 18:02:36 38° 64° (ENE) 18:07:29 437.490
PCSat 28 Aug 18:02:40 18:05:55 16° 11° (N) 18:09:09 145.827
NOAA 15 28 Aug 18:06:45 18:11:51 54° 68° (ENE) 18:17:01 137.62
CUTE-I 28 Aug 18:09:01 18:14:05 46° 66° (ENE) 18:19:09 437.470
SWISSCUBE 28 Aug 18:15:39 18:17:29 12° 309° (NW) 18:19:18 437.505
BEESAT 2 28 Aug 18:16:13 18:20:05 43° 41° (NE) 18:23:55 435.950
CUBESAT XI-V 28 Aug 18:20:08 18:24:31 37° 96° (E) 18:28:54 437.345
KKS-1 28 Aug 18:21:02 18:25:21 49° 291° (WNW) 18:29:39 437.445
BEESAT 3 28 Aug 18:32:12 18:36:12 87° 231° (SW) 18:40:10 437.485
LilacSat-2 28 Aug 18:33:50 18:37:38 61° 73° (ENE) 18:41:26 437.200
MOZHAYETS 4 28 Aug 18:34:46 18:38:46 31° 296° (WNW) 18:42:47
HO-68 28 Aug 18:46:07 18:52:02 29° 52° (NE) 18:57:57 435.675
HORYU 2 28 Aug 18:47:27 18:50:48 21° 268° (W) 18:54:10 437.375
STARS 28 Aug 18:54:02 18:58:14 44° 293° (WNW) 19:02:25 437.465
NOAA 18 28 Aug 18:57:39 19:03:12 84° 254° (WSW) 19:08:46 137.9125
AIST 2 28 Aug 18:59:07 19:01:54 17° 21° (NNE) 19:04:41 435.215
GOMX 1 28 Aug 19:02:46 19:07:58 77° 257° (WSW) 19:13:28 467.674
DOVE 4 28 Aug 19:03:56 19:09:05 61° 71° (ENE) 19:14:21 437.250
Cosmos 2504 28 Aug 19:06:41 19:14:00 70° 77° (ENE) 19:21:08 435.465 / 435.565
Cosmos 2491 28 Aug 19:20:58 19:29:41 85° 99° (E) 19:38:32 435.465 / 435.565
BRITE-PL 28 Aug 19:34:08 19:38:10 24° 271° (W) 19:42:27 437.365/2234.400
YUBILEINY 28 Aug 19:34:41 19:42:38 40° 276° (W) 19:50:30 435.215
AIST 1 28 Aug 19:36:11 19:38:49 15° 62° (ENE) 19:41:27
CINEMA 3 28 Aug 19:37:09 19:41:49 41° 67° (ENE) 19:46:25 145.822/145.860
Cubesat XI-IV 28 Aug 19:37:40 19:42:40 39° 263° (W) 19:47:41 437.490
SEEDS 28 Aug 19:40:20 19:43:35 23° 63° (ENE) 19:46:51 437.485
UWE-3 28 Aug 19:45:53 19:47:47 13° 55° (NE) 19:49:41 435.000/436.395/437.385
PCSat 28 Aug 19:46:10 19:51:02 32° 36° (NE) 19:55:54 145.827
NOAA 15 28 Aug 19:47:32 19:51:57 27° 267° (W) 19:56:23 137.62
CUBEBUG 2 28 Aug 19:49:10 19:52:21 19° 60° (ENE) 19:55:29 437.445
CUTE-I 28 Aug 19:49:33 19:54:17 32° 265° (W) 19:59:03 437.470
BEESAT 2 28 Aug 19:54:16 19:57:47 29° 241° (WSW) 20:01:17 435.950
CUBESAT XI-V 28 Aug 19:57:40 20:01:51 33° 295° (WNW) 20:06:02 437.345
ZACube-1 28 Aug 19:58:42 19:59:50 11° 54° (NE) 20:00:58 437.345
CANX-2 28 Aug 20:03:11 20:07:16 54° 71° (ENE) 20:11:24 2200.000
STRAND 1 28 Aug 20:07:02 20:11:21 27° 93° (E) 20:15:39 437.568
AAUSAT CUBESAT 2 28 Aug 20:08:03 20:11:22 24° 63° (ENE) 20:14:42 437.432
CUTE 1.7 + AOD 2 28 Aug 20:09:03 20:13:09 54° 71° (ENE) 20:17:16 437.475
LilacSat-2 28 Aug 20:10:14 20:12:20 14° 271° (W) 20:14:26 437.200
BEESAT 3 28 Aug 20:11:34 20:13:14 12° 249° (WSW) 20:14:55 437.485
COMPASS 1 28 Aug 20:16:45 20:20:29 35° 67° (ENE) 20:24:16 437.405
HO-68 28 Aug 20:31:53 20:39:06 81° 253° (WSW) 20:46:22 435.675
AIST 2 28 Aug 20:37:10 20:41:17 52° 43° (NE) 20:45:23 435.215
NOAA 18 28 Aug 20:41:36 20:44:43 15° 273° (W) 20:47:50 137.9125
DOVE 4 28 Aug 20:42:56 20:47:09 24° 270° (W) 20:51:27 437.250
GOMX 1 28 Aug 20:44:30 20:47:00 13° 278° (W) 20:49:34 467.674
Oscar 11 28 Aug 21:00:12 21:04:06 35° 66° (ENE) 21:08:01 145.826/435.025
Cosmos 2504 28 Aug 21:00:55 21:06:41 26° 279° (W) 21:12:23 435.465 / 435.565
FUNcube-1 28 Aug 21:09:07 21:13:13 39° 68° (ENE) 21:17:14 145.935
AIST 1 28 Aug 21:12:35 21:17:00 76° 262° (W) 21:21:23
CINEMA 3 28 Aug 21:14:30 21:19:01 33° 265° (W) 21:23:28 145.822/145.860
SEEDS 28 Aug 21:15:03 21:19:03 46° 261° (W) 21:23:05 437.485
UWE-3 28 Aug 21:19:01 21:23:33 76° 75° (ENE) 21:28:00 435.000/436.395/437.385
Cosmos 2491 28 Aug 21:20:27 21:27:43 28° 303° (WNW) 21:35:05 435.465 / 435.565
CUBEBUG 2 28 Aug 21:23:53 21:28:32 70° 257° (WSW) 21:33:05 437.445
PCSat 28 Aug 21:29:27 21:34:52 67° 238° (WSW) 21:40:14 145.827
ZACube-1 28 Aug 21:30:57 21:35:22 67° 72° (ENE) 21:39:40 437.345
DELFI C3 28 Aug 21:36:20 21:39:53 33° 67° (ENE) 21:43:28 145.870
CANX-2 28 Aug 21:40:31 21:43:29 18° 270° (W) 21:46:27 2200.000
AAUSAT CUBESAT 2 28 Aug 21:42:46 21:46:40 41° 262° (W) 21:50:36 437.432
STRAND 1 28 Aug 21:45:52 21:50:48 51° 293° (WNW) 21:55:44 437.568
CUTE 1.7 + AOD 2 28 Aug 21:46:24 21:49:20 18° 270° (W) 21:52:17 437.475
COMPASS 1 28 Aug 21:52:34 21:56:08 28° 266° (W) 21:59:42 437.405
GONETS M04 28 Aug 21:52:48 21:59:45 25° 54° (NE) 22:06:40
AUBIESAT-1 28 Aug 22:03:10 22:06:38 21° 53° (NE) 22:10:03 437.475
HUMSAT D 28 Aug 22:06:58 22:10:46 36° 67° (ENE) 22:14:34 437.325/437.525
Cosmos 2499 28 Aug 22:08:00 22:12:46 18° 54° (NE) 22:17:29 435.465 / 435.565
M-CUBED/EXP-1 PRIME 28 Aug 22:09:21 22:13:18 27° 56° (NE) 22:17:13 437.505
O/OREOS (USA 219) 28 Aug 22:10:44 22:13:35 16° 39° (NE) 22:16:26 437.305
AIST 2 28 Aug 22:16:04 22:19:32 25° 243° (WSW) 22:23:00 435.215
PRISM 28 Aug 22:18:17 22:22:26 56° 102° (ESE) 22:26:32 437.425
HO-68 28 Aug 22:23:08 22:27:57 19° 274° (W) 22:32:48 435.675
CUBEBUG 1 28 Aug 22:24:20 22:25:00 10° 51° (NE) 22:25:39 437.445
ANTELSAT 28 Aug 22:33:03 22:34:13 11° 85° (E) 22:35:25 437.575/2403.000
Oscar 11 28 Aug 22:36:29 22:40:16 30° 265° (W) 22:44:06 145.826/435.025
FUNcube-1 28 Aug 22:45:50 22:49:34 27° 266° (W) 22:53:16 145.935
UWE-3 28 Aug 22:57:56 23:00:32 15° 272° (W) 23:03:05 435.000/436.395/437.385
TIGRISAT 28 Aug 23:02:00 23:05:12 20° 91° (E) 23:08:22 435.000
ESTCUBE 1 28 Aug 23:07:52 23:11:52 32° 65° (ENE) 23:15:54 437.505/2401.250
ZACube-1 28 Aug 23:09:17 23:12:04 16° 271° (W) 23:14:50 437.345
AISAT 28 Aug 23:11:22 23:14:52 23° 61° (ENE) 23:18:23 437.250
DELFI C3 28 Aug 23:11:26 23:14:47 26° 266° (W) 23:18:10 145.870
UKube-1 28 Aug 23:14:37 23:16:57 14° 55° (NE) 23:19:17 .
PCSat 28 Aug 23:15:09 23:17:16 12° 258° (WSW) 23:19:20 145.827
STRAND 1 28 Aug 23:27:47 23:28:53 11° 313° (NW) 23:29:59 437.568
UNISAT 6 28 Aug 23:30:32 23:34:35 39° 97° (E) 23:38:35 437.425
AUBIESAT-1 28 Aug 23:36:01 23:40:39 71° 251° (WSW) 23:45:16 437.475
50 SAT 28 Aug 23:38:56 23:42:06 30° 67° (ENE) 23:45:16 437.505
M-CUBED/EXP-1 PRIME 28 Aug 23:42:57 23:47:33 53° 254° (WSW) 23:52:09 437.505
HUMSAT D 28 Aug 23:42:59 23:46:29 26° 266° (W) 23:49:59 437.325/437.525
GONETS M04 28 Aug 23:49:11 23:58:08 83° 79° (E) 00:07:01
O/OREOS (USA 219) 28 Aug 23:49:13 23:53:50 74° 61° (ENE) 23:58:26 437.305
QB50P1 28 Aug 23:49:49 23:50:48 11° 86° (E) 23:51:46 145.935-145.965
PRISM 28 Aug 23:54:21 23:57:23 20° 300° (WNW) 00:00:25 437.425
CUBEBUG 1 28 Aug 23:56:02 00:00:23 60° 71° (ENE) 00:04:47 437.445
VELOX 1 28 Aug 23:57:31 00:01:51 53° 69° (ENE) 00:06:13 145.980
POPSAT HIP 1 28 Aug 23:59:02 00:01:05 13° 87° (E) 00:03:08 437.405
Cosmos 2499 29 Aug 00:00:08 00:07:16 77° 78° (ENE) 00:14:22 435.465 / 435.565
SO-50 29 Aug 00:02:51 00:07:06 31° 118° (ESE) 00:11:19 436.795
JAS-2 29 Aug 00:03:02 00:06:59 16° 84° (E) 00:11:07 435.910
ANTELSAT 29 Aug 00:07:19 00:11:41 87° 109° (ESE) 00:15:56 437.575/2403.000
SPROUT 29 Aug 00:07:46 00:11:43 36° 67° (ENE) 00:15:40 437.525
DANDE 29 Aug 00:10:16 00:11:09 11° 85° (E) 00:12:04 436.750
DX 1 29 Aug 00:10:18 00:14:32 50° 69° (ENE) 00:18:48 434.975-435.025
TISAT 1 29 Aug 00:23:36 00:26:08 16° 57° (ENE) 00:28:39 437.305
DUCHIFAT 1 29 Aug 00:24:15 00:27:27 21° 92° (E) 00:30:38 145.980
QB50P2 29 Aug 00:28:38 00:32:15 27° 94° (E) 00:35:50 145.880/145.840
POLYITAN 1 29 Aug 00:31:09 00:34:46 27° 94° (E) 00:38:22 437.675
TIGRISAT 29 Aug 00:38:02 00:42:13 50° 290° (WNW) 00:46:20 435.000
NANOSAT C BR1 29 Aug 00:38:24 00:42:08 30° 95° (E) 00:45:50 145.865
CUSAT 1 29 Aug 00:39:54 00:43:05 70° 285° (WNW) 00:47:15 437.405
ESTCUBE 1 29 Aug 00:44:32 00:48:39 35° 264° (W) 00:52:48 437.505/2401.250
AISAT 29 Aug 00:46:41 00:51:03 53° 260° (W) 00:55:28 437.250
UKube-1 29 Aug 00:48:02 00:52:23 89° 281° (WNW) 00:56:45 .
UNISAT 6 29 Aug 01:07:33 01:11:11 27° 297° (WNW) 01:14:47 437.425
RS-15 29 Aug 01:09:29 01:19:23 35° 105° (ESE) 01:29:39 29.354- 29.394
50 SAT 29 Aug 01:12:42 01:15:42 24° 265° (W) 01:18:43 437.505
BUGSAT 1 29 Aug 01:13:28 01:17:06 28° 95° (E) 01:20:41 437.445
AUBIESAT-1 29 Aug 01:14:47 01:15:50 11° 269° (W) 01:16:54 437.475
QB50P1 29 Aug 01:23:00 01:27:16 86° 100° (E) 01:31:29 145.935-145.965
O/OREOS (USA 219) 29 Aug 01:29:48 01:32:40 16° 260° (W) 01:35:32 437.305
POPSAT HIP 1 29 Aug 01:33:11 01:37:26 78° 286° (WNW) 01:41:38 437.405
CUBEBUG 1 29 Aug 01:33:59 01:37:04 18° 270° (W) 01:40:12 437.445
VELOX 1 29 Aug 01:35:14 01:38:38 21° 268° (W) 01:42:02 145.980
ITUPSAT 1 29 Aug 01:38:42 01:42:11 21° 58° (ENE) 01:45:41 437.325
SO-50 29 Aug 01:42:39 01:47:25 54° 318° (NW) 01:52:08 436.795
SPROUT 29 Aug 01:43:56 01:47:43 29° 265° (W) 01:51:30 437.525
ANTELSAT 29 Aug 01:45:29 01:47:46 14° 304° (NW) 01:50:01 437.575/2403.000
JAS-2 29 Aug 01:46:20 01:53:01 70° 103° (ESE) 02:00:29 435.910
GONETS M04 29 Aug 01:47:00 01:53:59 27° 282° (WNW) 02:00:58
DX 1 29 Aug 01:47:38 01:51:01 21° 268° (W) 01:54:25 434.975-435.025
DANDE 29 Aug 01:51:00 01:53:27 30° 292° (WNW) 01:56:16 436.750
Cosmos 2499 29 Aug 01:54:17 01:59:35 23° 280° (W) 02:04:53 435.465 / 435.565
TISAT 1 29 Aug 01:56:59 02:01:15 79° 258° (WSW) 02:05:31 437.305
DUCHIFAT 1 29 Aug 01:59:22 02:03:25 48° 291° (WNW) 02:07:26 145.980
QB50P2 29 Aug 02:04:15 02:08:10 37° 293° (WNW) 02:12:02 145.880/145.840
POLYITAN 1 29 Aug 02:06:46 02:10:40 37° 293° (WNW) 02:14:32 437.675
